Location: Central Falls
(41.8900°N, 71.3929°W)
Time: 18:47:37
(UTC+00:00)

SL-12 DEB - Visible Passes

Search period start: 26 May 2024 00:00
Search period end: 05 June 2024 00:00
Orbit: 1220 x 1223 km, 87.9° (Epoch: 25 May)

Date Brightness Start Highest point End Pass type
(mag) Time Alt. Az. Time Alt. Az. Time Alt. Az.
26 May ? 00:50:05 10° S 00:57:29 87° E 01:04:56 10° N visible
26 May ? 02:43:57 10° WSW 02:48:27 17° WNW 02:52:59 10° NNW visible
27 May ? 00:39:31 10° S 00:46:55 81° E 00:54:20 10° N visible
27 May ? 02:32:51 10° WSW 02:37:45 19° WNW 02:42:42 10° NNW visible
28 May ? 00:28:59 10° S 00:36:20 74° E 00:43:44 10° N visible
28 May ? 02:21:48 10° WSW 02:27:03 21° WNW 02:32:22 10° NNW visible
29 May ? 02:10:48 10° SW 02:16:22 23° WNW 02:21:59 10° NNW visible
30 May ? 01:59:51 10° SW 02:05:41 25° WNW 02:11:35 10° NNW visible
31 May ? 01:48:55 10° SW 01:55:01 27° WNW 02:01:09 10° NNW visible
01 Jun ? 01:38:01 10° SW 01:44:20 30° WNW 01:50:42 10° NNW visible
02 Jun ? 01:27:11 10° SW 01:33:41 33° W 01:40:14 10° NNW visible
03 Jun ? 01:16:21 10° SW 01:23:01 36° W 01:29:45 10° NNW visible
04 Jun ? 01:05:33 10° SSW 01:12:22 39° W 01:19:14 10° NNW visible
